Hourly Weather Allassac

Today, 26 February, Friday

Time Temperature Precipitation Wind Pressure Humidity
00:00 +7°C° 0 mm 0 mps 747 mmHg 95%
01:00 +7°C° 0 mm 0 mps 747 mmHg 95%
02:00 +6°C° 0 mm 0 mps 747 mmHg 95%
03:00 +6°C° 0 mm 0 mps 747 mmHg 95%
04:00 +6°C° 0 mm 0 mps 747 mmHg 95%
05:00 +6°C° 0 mm 0 mps 747 mmHg 95%
06:00 +6°C° 0 mm 0 mps 747 mmHg 95%
07:00 +8°C° 0 mm 0 mps 747 mmHg 89%
08:00 +9°C° 0 mm 0 mps 747 mmHg 83%
09:00 +11°C° 0 mm 0 mps 748 mmHg 77%
10:00 +13°C° 0 mm 1 mps 748 mmHg 72%
11:00 +15°C° 0 mm 1 mps 747 mmHg 67%
12:00 +16°C° 0 mm 1 mps 747 mmHg 62%
13:00 +16°C° 0 mm 2 mps 747 mmHg 64%
14:00 +16°C° 0 mm 2 mps 747 mmHg 67%
15:00 +16°C° 0 mm 2 mps 746 mmHg 69%
16:00 +14°C° 0 mm 2 mps 746 mmHg 75%
17:00 +12°C° 0 mm 2 mps 746 mmHg 82%
18:00 +9°C° 0 mm 2 mps 747 mmHg 88%
19:00 +8°C° 0 mm 2 mps 747 mmHg 89%
20:00 +7°C° 0 mm 2 mps 747 mmHg 89%
21:00 +7°C° 0 mm 2 mps 747 mmHg 89%
22:00 +6°C° 0 mm 2 mps 747 mmHg 89%
23:00 +6°C° 0 mm 2 mps 747 mmHg 90%

Tomorrow, 27 February, Saturday

Time Temperature Precipitation Wind Pressure Humidity
00:00 +5°C° 0 mm 2 mps 747 mmHg 90%
01:00 +6°C° 0 mm 2 mps 747 mmHg 91%
02:00 +6°C° 0 mm 2 mps 747 mmHg 91%
03:00 +6°C° 0 mm 2 mps 747 mmHg 91%
04:00 +6°C° 0 mm 2 mps 747 mmHg 91%
05:00 +6°C° 0 mm 2 mps 747 mmHg 91%
06:00 +6°C° 0 mm 2 mps 747 mmHg 90%
07:00 +7°C° 0 mm 2 mps 747 mmHg 82%
08:00 +8°C° 0 mm 3 mps 747 mmHg 74%
09:00 +9°C° 0 mm 3 mps 747 mmHg 65%
10:00 +10°C° 0 mm 3 mps 747 mmHg 59%
11:00 +11°C° 0 mm 3 mps 747 mmHg 52%
12:00 +12°C° 0 mm 3 mps 747 mmHg 45%
13:00 +12°C° 0 mm 3 mps 746 mmHg 46%
14:00 +12°C° 0 mm 3 mps 746 mmHg 47%
15:00 +12°C° 0 mm 3 mps 745 mmHg 47%
16:00 +10°C° 0 mm 3 mps 745 mmHg 55%
17:00 +9°C° 0 mm 3 mps 745 mmHg 62%
18:00 +7°C° 0 mm 3 mps 745 mmHg 69%
19:00 +5°C° 0 mm 3 mps 745 mmHg 71%
20:00 +4°C° 0 mm 3 mps 745 mmHg 74%
21:00 +5°C° 0 mm 2 mps 745 mmHg 77%
22:00 +4°C° 0 mm 2 mps 745 mmHg 77%
23:00 +4°C° 0 mm 2 mps 745 mmHg 78%

Day after tomorrow, 28 February, Sunday

Time Temperature Precipitation Wind Pressure Humidity
00:00 +4°C° 0 mm 2 mps 744 mmHg 78%
01:00 +3°C° 0 mm 2 mps 744 mmHg 80%
02:00 +4°C° 0 mm 1 mps 744 mmHg 81%
03:00 +4°C° 0 mm 1 mps 743 mmHg 82%
04:00 +4°C° 0 mm 1 mps 743 mmHg 83%
05:00 +4°C° 0 mm 1 mps 743 mmHg 83%
06:00 +4°C° 0 mm 1 mps 743 mmHg 84%
07:00 +6°C° 0 mm 1 mps 744 mmHg 77%
08:00 +8°C° 0 mm 1 mps 744 mmHg 71%
09:00 +10°C° 0 mm 1 mps 744 mmHg 65%
10:00 +12°C° 0 mm 1 mps 744 mmHg 61%
11:00 +13°C° 0 mm 1 mps 744 mmHg 58%
12:00 +15°C° 0 mm 1 mps 744 mmHg 54%
13:00 +15°C° 0 mm 1 mps 743 mmHg 54%
14:00 +16°C° 0 mm 1 mps 743 mmHg 54%
15:00 +16°C° 0 mm 1 mps 742 mmHg 53%
16:00 +14°C° 0 mm 1 mps 742 mmHg 63%
17:00 +11°C° 0 mm 0 mps 742 mmHg 72%
18:00 +9°C° 0 mm 0 mps 742 mmHg 81%
19:00 +8°C° 0 mm 0 mps 742 mmHg 84%
20:00 +9°C° 0 mm 1 mps 743 mmHg 86%
21:00 +8°C° 0 mm 1 mps 743 mmHg 89%
22:00 +7°C° 0 mm 1 mps 743 mmHg 89%
23:00 +7°C° 0 mm 1 mps 743 mmHg 90%

1 March, Monday

Time Temperature Precipitation Wind Pressure Humidity
00:00 +7°C° 0 mm 1 mps 742 mmHg 91%
01:00 +7°C° 0 mm 1 mps 742 mmHg 90%
02:00 +6°C° 0 mm 1 mps 742 mmHg 90%
03:00 +6°C° 0 mm 1 mps 742 mmHg 90%
04:00 +6°C° 0 mm 1 mps 742 mmHg 88%
05:00 +6°C° 0 mm 1 mps 742 mmHg 87%
06:00 +6°C° 0 mm 1 mps 742 mmHg 85%
07:00 +7°C° 0 mm 2 mps 742 mmHg 79%
08:00 +9°C° 0 mm 3 mps 742 mmHg 72%
09:00 +10°C° 0 mm 3 mps 743 mmHg 66%
10:00 +12°C° 0 mm 3 mps 742 mmHg 62%
11:00 +13°C° 0 mm 3 mps 742 mmHg 58%
12:00 +14°C° 0 mm 3 mps 742 mmHg 54%
13:00 +16°C° 0 mm 3 mps 742 mmHg 53%
14:00 +16°C° 0 mm 3 mps 742 mmHg 51%
15:00 +16°C° 0 mm 3 mps 741 mmHg 50%
16:00 +14°C° 0 mm 2 mps 742 mmHg 57%
17:00 +13°C° 0 mm 2 mps 742 mmHg 64%
18:00 +11°C° 0 mm 1 mps 742 mmHg 72%
19:00 +10°C° 0 mm 1 mps 742 mmHg 72%
20:00 +8°C° 0 mm 2 mps 742 mmHg 73%
21:00 +7°C° 0 mm 2 mps 743 mmHg 73%
22:00 +7°C° 0 mm 2 mps 743 mmHg 70%
23:00 +7°C° 0 mm 1 mps 743 mmHg 68%

2 March, Tuesday

Time Temperature Precipitation Wind Pressure Humidity
00:00 +7°C° 0 mm 1 mps 743 mmHg 65%
01:00 +7°C° 0 mm 1 mps 743 mmHg 65%
02:00 +7°C° 0 mm 1 mps 743 mmHg 64%
03:00 +6°C° 0 mm 1 mps 743 mmHg 64%
04:00 +6°C° 0 mm 1 mps 743 mmHg 65%
05:00 +6°C° 0 mm 1 mps 744 mmHg 66%
06:00 +6°C° 0 mm 1 mps 744 mmHg 66%
07:00 +6°C° 0 mm 2 mps 744 mmHg 62%
08:00 +8°C° 0 mm 2 mps 745 mmHg 57%
09:00 +10°C° 0 mm 3 mps 745 mmHg 52%
10:00 +11°C° 0 mm 3 mps 745 mmHg 51%
11:00 +13°C° 0 mm 3 mps 745 mmHg 50%
12:00 +14°C° 0 mm 3 mps 745 mmHg 49%
13:00 +16°C° 0 mm 3 mps 745 mmHg 50%
14:00 +16°C° 0 mm 2 mps 745 mmHg 51%
15:00 +16°C° 0 mm 2 mps 745 mmHg 52%
16:00 +15°C° 0 mm 2 mps 745 mmHg 61%
17:00 +13°C° 0 mm 2 mps 745 mmHg 69%
18:00 +11°C° 0 mm 1 mps 745 mmHg 78%
19:00 +10°C° 0 mm 1 mps 746 mmHg 81%
20:00 +9°C° 0 mm 1 mps 746 mmHg 83%
21:00 +8°C° 0 mm 1 mps 747 mmHg 86%
22:00 +7°C° 0 mm 1 mps 747 mmHg 87%
23:00 +7°C° 0 mm 1 mps 747 mmHg 87%

3 March, Wednesday

Time Temperature Precipitation Wind Pressure Humidity
00:00 +6°C° 0 mm 1 mps 747 mmHg 88%
01:00 +6°C° 0 mm 1 mps 747 mmHg 87%
02:00 +6°C° 0 mm 1 mps 747 mmHg 86%
03:00 +5°C° 0 mm 1 mps 747 mmHg 85%
04:00 +5°C° 0 mm 1 mps 747 mmHg 83%
05:00 +5°C° 0 mm 1 mps 747 mmHg 81%
06:00 +5°C° 0 mm 1 mps 747 mmHg 80%
07:00 +7°C° 0 mm 1 mps 747 mmHg 71%
08:00 +9°C° 0 mm 1 mps 748 mmHg 63%
09:00 +10°C° 0 mm 1 mps 748 mmHg 54%
10:00 +12°C° 0 mm 1 mps 748 mmHg 51%
11:00 +14°C° 0 mm 1 mps 747 mmHg 48%
12:00 +16°C° 0 mm 1 mps 747 mmHg 45%
13:00 +16°C° 0 mm 1 mps 747 mmHg 45%
14:00 +18°C° 0 mm 1 mps 746 mmHg 46%
15:00 +16°C° 0 mm 0 mps 746 mmHg 47%
16:00 +14°C° 0 mm 0 mps 746 mmHg 57%
17:00 +11°C° 0 mm 0 mps 746 mmHg 67%
18:00 +9°C° 0 mm 0 mps 745 mmHg 76%
19:00 +9°C° 0 mm 0 mps 746 mmHg 80%
20:00 +9°C° 0 mm 1 mps 746 mmHg 83%
21:00 +8°C° 0 mm 1 mps 746 mmHg 86%
22:00 +8°C° 0 mm 1 mps 746 mmHg 88%
23:00 +8°C° 0 mm 1 mps 746 mmHg 89%
Show more